This is the latest recevied weather packets stored in our database for station/object OK1FET-5. If no packets are shown the sender has not sent any weather packets the latest 10 day(s).
| Time | Temp. | Humidity | Pressure | Rain* | Wind** | Luminosity | Snow |
|---|---|---|---|---|---|---|---|
| 1778079488 | 21.11° C | 47% | 1006 hPa | - | - | - | - |
| 1778079193 | 21.11° C | 47% | 1006.1 hPa | - | - | - | - |
| 1778078897 | 21.11° C | 47% | 1006.1 hPa | - | - | - | - |
| 1778078602 | 21.11° C | 47% | 1006.1 hPa | - | - | - | - |
| 1778078307 | 21.67° C | 47% | 1006.1 hPa | - | - | - | - |
| 1778078012 | 21.67° C | 47% | 1006.1 hPa | - | - | - | - |
| 1778077717 | 21.67° C | 47% | 1006.1 hPa | - | - | - | - |
| 1778077422 | 22.22° C | 48% | 1006 hPa | - | - | - | - |
| 1778076831 | 22.78° C | 47% | 1006.2 hPa | - | - | - | - |
| 1778076536 | 23.33° C | 47% | 1006.2 hPa | - | - | - | - |
| 1778076240 | 23.89° C | 47% | 1006.2 hPa | - | - | - | - |
| 1778075354 | 25° C | 49% | 1006.4 hPa | - | - | - | - |
| 1778075058 | 25° C | 50% | 1006.3 hPa | - | - | - | - |
| 1778074762 | 24.44° C | 51% | 1006.4 hPa | - | - | - | - |
| 1778074171 | 25° C | 49% | 1006.4 hPa | - | - | - | - |
| 1778073580 | 25° C | 49% | 1006.5 hPa | - | - | - | - |
| 1778073284 | 23.89° C | 50% | 1006.7 hPa | - | - | - | - |
| 1778072988 | 23.89° C | 49% | 1006.8 hPa | - | - | - | - |
| 1778072693 | 23.89° C | 51% | 1007 hPa | - | - | - | - |
| 1778072102 | 24.44° C | 49% | 1007 hPa | - | - | - | - |
| 1778071806 | 25° C | 49% | 1007.1 hPa | - | - | - | - |
| 1778071510 | 25.56° C | 50% | 1007.1 hPa | - | - | - | - |
| 1778071214 | 25° C | 52% | 1007.1 hPa | - | - | - | - |
| 1778070919 | 24.44° C | 48% | 1007.1 hPa | - | - | - | - |
| 1778070623 | 26.11° C | 55% | 1007.2 hPa | - | - | - | - |
* Rain since midnight (hover to see other rain measurements)
** Current wind speed in m/s (hover to see current wind gust speed)